Simultaneous Nadir Overpasses (SNOs) Predictions

Prediction of SNOs between GOES-16 and TERRA Satellite Orbit:

Table of predicted SNOs for the next 14.0 days since TLE Epoch: 12/17/2023
Index Date Time (GOES-16) GOES-16 Lat,Lon TERRA Lat,Lon Distance(km) Time Diff (sec)
1 12/17/2023 15:04:55 -0.03, -75.24 0.22, -76.56 149.73 80
2 12/19/2023 14:45:27 -0.03, -75.26 -0.58, -72.50 312.95 80
3 12/20/2023 03:08:20 0.02, -75.24 -0.44, -77.42 247.16 80
4 12/22/2023 02:48:53 0.02, -75.27 0.45, -73.37 216.30 80
5 12/22/2023 15:11:37 -0.02, -75.30 0.61, -78.24 335.03 80
6 12/24/2023 14:52:09 -0.02, -75.33 -0.24, -74.19 129.11 80
7 12/25/2023 03:15:02 0.02, -75.32 -0.78, -79.10 430.67 80
8 12/27/2023 02:55:34 0.02, -75.35 0.08, -75.05 34.13 80
9 12/29/2023 02:38:46 0.01, -75.39 0.96, -71.00 499.80 80
10 12/29/2023 14:58:50 -0.01, -75.42 0.08, -75.88 50.95 80
